CFG7EH LGKR-LGSK

Flight info

Callsign CFG7EH
Flight time N/A
Altitude 17000
Route PARAX G12 YNN V651 AGH W58 EVIKO
Aircraft A321/M-SDE3FGHIRWY/LB1

Departure

Time 2026-05-01 15:23
Airport Corfu Ioannis Kapodistrias International Airport (LGKR)

Arrival

Time N/A
Airport Skiathos Island National Airport (LGSK)
Time Latitude Longitude Altitude Speed Heading
2026-05-01 14:45 39.60760 19.91326 21 ft 0 kts 80°
2026-05-01 15:14 39.60756 19.91295 22 ft 4 kts 78°
2026-05-01 15:14 39.60750 19.91261 20 ft 4 kts 78°
2026-05-01 15:14 39.60728 19.91211 24 ft 4 kts
2026-05-01 15:15 39.60705 19.91212 23 ft 0 kts 353°
2026-05-01 15:20 39.60809 19.91189 20 ft 18 kts 349°
2026-05-01 15:20 39.60944 19.91154 21 ft 21 kts 348°
2026-05-01 15:20 39.61079 19.91118 22 ft 18 kts 348°
2026-05-01 15:21 39.61157 19.91096 23 ft 8 kts 347°
2026-05-01 15:21 39.61169 19.91092 23 ft 0 kts 347°
2026-05-01 15:21 39.61170 19.91092 23 ft 0 kts 347°
2026-05-01 15:22 39.61236 19.90988 24 ft 11 kts 288°
2026-05-01 15:22 39.61206 19.90949 23 ft 7 kts 178°
2026-05-01 15:22 39.61144 19.90966 23 ft 21 kts 168°
2026-05-01 15:23 39.60733 19.91073 22 ft 96 kts 168°
2026-05-01 15:23 39.59878 19.91294 27 ft 151 kts 169°
2026-05-01 15:23 39.58742 19.91594 321 ft 169 kts 166°
2026-05-01 15:23 39.57715 19.92201 1126 ft 158 kts 144°
2026-05-01 15:24 39.56896 19.93156 1702 ft 160 kts 139°
2026-05-01 15:24 39.56069 19.94138 2213 ft 161 kts 139°
2026-05-01 15:24 39.55200 19.95154 2509 ft 178 kts 139°
2026-05-01 15:24 39.54234 19.96255 2812 ft 192 kts 139°
2026-05-01 15:25 39.53209 19.97413 3223 ft 203 kts 139°
2026-05-01 15:25 39.52090 19.98672 3454 ft 221 kts 139°
2026-05-01 15:25 39.50912 19.99993 3944 ft 227 kts 137°
2026-05-01 15:25 39.49724 20.01321 4800 ft 222 kts 137°
2026-05-01 15:26 39.48560 20.02622 5650 ft 221 kts 137°
2026-05-01 15:26 39.47390 20.03927 6447 ft 223 kts 137°
2026-05-01 15:26 39.46207 20.05244 7190 ft 226 kts 137°
2026-05-01 15:26 39.45009 20.06579 7920 ft 229 kts 138°
2026-05-01 15:27 39.43876 20.08051 8637 ft 233 kts 121°
2026-05-01 15:27 39.43303 20.10057 9054 ft 246 kts 91°
2026-05-01 15:27 39.43605 20.12208 9631 ft 251 kts 61°
2026-05-01 15:28 39.45821 20.15886 10525 ft 279 kts 48°
2026-05-01 15:28 39.47104 20.17866 10932 ft 293 kts 48°
2026-05-01 15:28 39.48418 20.19921 11591 ft 299 kts 51°
2026-05-01 15:29 39.50423 20.24719 13024 ft 308 kts 65°
2026-05-01 15:29 39.51304 20.27299 13531 ft 321 kts 65°
2026-05-01 15:29 39.53175 20.32733 14650 ft 336 kts 64°
2026-05-01 15:30 39.55097 20.38331 15934 ft 343 kts 64°
2026-05-01 15:31 39.59040 20.49852 17064 ft 352 kts 64°
2026-05-01 15:31 39.61029 20.55670 17069 ft 353 kts 64°
2026-05-01 15:32 39.63014 20.61496 17074 ft 353 kts 64°
2026-05-01 15:32 39.64983 20.67283 17108 ft 353 kts 64°
2026-05-01 15:33 39.67950 20.76038 17123 ft 353 kts 64°
2026-05-01 15:34 39.69058 20.85407 17122 ft 356 kts 98°